TimeMST,TemperatureF,Dew PointF,Humidity,Sea Level PressureIn,VisibilityMPH,Wind Direction,Wind SpeedMPH,Gust SpeedMPH,PrecipitationIn,Events,Conditions,WindDirDegrees,DateUTC
12:53 AM,21.9,19.0,89,30.39,10.0,WSW,13.8,-,N/A,,Clear,250,2014-01-02 07:53:00
1:53 AM,19.9,17.1,89,30.40,10.0,WSW,11.5,-,N/A,,Clear,250,2014-01-02 08:53:00
2:53 AM,19.9,17.1,89,30.37,10.0,WSW,12.7,-,N/A,,Clear,250,2014-01-02 09:53:00
3:53 AM,19.9,16.0,85,30.36,10.0,WSW,11.5,-,N/A,,Clear,250,2014-01-02 10:53:00
4:53 AM,21.0,18.0,88,30.36,10.0,West,12.7,-,N/A,,Clear,260,2014-01-02 11:53:00
5:53 AM,21.9,18.0,85,30.36,10.0,West,16.1,-,N/A,,Clear,260,2014-01-02 12:53:00
6:53 AM,21.9,18.0,85,30.36,10.0,West,15.0,-,N/A,,Clear,260,2014-01-02 13:53:00
7:53 AM,23.0,18.0,81,30.38,10.0,West,13.8,-,N/A,,Clear,260,2014-01-02 14:53:00
8:53 AM,30.0,21.0,69,30.37,10.0,West,10.4,-,N/A,,Clear,260,2014-01-02 15:53:00
9:53 AM,37.9,24.1,57,30.36,10.0,West,13.8,-,N/A,,Clear,280,2014-01-02 16:53:00
10:53 AM,43.0,19.9,40,30.35,10.0,WNW,16.1,-,N/A,,Clear,300,2014-01-02 17:53:00
11:53 AM,44.1,18.0,35,30.32,10.0,NW,9.2,-,N/A,,Clear,310,2014-01-02 18:53:00
12:53 PM,44.1,17.1,34,30.29,10.0,NW,9.2,-,N/A,,Clear,320,2014-01-02 19:53:00
1:53 PM,45.0,17.1,33,30.28,10.0,Variable,5.8,-,N/A,,Clear,0,2014-01-02 20:53:00
2:53 PM,46.0,16.0,30,30.27,10.0,Variable,4.6,-,N/A,,Clear,0,2014-01-02 21:53:00
3:53 PM,44.1,16.0,32,30.26,10.0,Calm,Calm,-,N/A,,Clear,0,2014-01-02 22:53:00
4:53 PM,33.1,14.0,46,30.27,10.0,SSE,5.8,-,N/A,,Clear,160,2014-01-02 23:53:00
5:53 PM,30.0,14.0,51,30.27,10.0,South,9.2,-,N/A,,Clear,180,2014-01-03 00:53:00
6:53 PM,30.9,14.0,50,30.26,10.0,South,9.2,-,N/A,,Clear,190,2014-01-03 01:53:00
7:53 PM,27.0,14.0,58,30.26,10.0,South,9.2,-,N/A,,Clear,190,2014-01-03 02:53:00
8:53 PM,27.0,14.0,58,30.21,10.0,South,10.4,-,N/A,,Clear,190,2014-01-03 03:53:00
9:53 PM,26.1,15.1,63,30.16,10.0,South,10.4,-,N/A,,Clear,180,2014-01-03 04:53:00
10:53 PM,24.1,15.1,69,30.13,10.0,South,11.5,-,N/A,,Scattered Clouds,190,2014-01-03 05:53:00
11:53 PM,21.0,14.0,74,30.09,10.0,South,11.5,-,N/A,,Clear,180,2014-01-03 06:53:00